contact:dominique.lefevre@mio.osupytheas.fr, maurice.libes@osupytheas.fr, didier.mallarino@osupytheas.fr
Project:EMSO http://www.emso-fr.org/EMSO-France
Depth: 2436.0 m
Title:EMSO Ligure Ouest : Data MII capteur MICROCAT
DateTime_Computer,Latitude,Longitude,Temperature,Conductivity,Pressure,DateTime_Instrument
DateTime_Computer,Latitude,Longitude,degC,S m-1,dbar,DateTime_Instrument
2023-02-10T00:01:33Z,42.805,6.029,13.3078,4.60157,2470.624,2023-2-10T02:03:54Z
2023-02-10T00:04:36Z,42.805,6.029,13.3070,4.60167,2470.6,2023-2-10T02:06:57Z
2023-02-10T00:07:39Z,42.805,6.029,13.3052,4.60144,2470.577,2023-2-10T02:10:00Z
2023-02-10T00:10:43Z,42.805,6.029,13.3050,4.60119,2470.624,2023-2-10T02:13:03Z
2023-02-10T00:13:46Z,42.805,6.029,13.3043,4.60134,2470.6,2023-2-10T02:16:07Z
2023-02-10T00:16:49Z,42.805,6.029,13.3029,4.60155,2470.6,2023-2-10T02:19:10Z
2023-02-10T00:19:52Z,42.805,6.029,13.3051,4.60144,2470.614,2023-2-10T02:22:13Z
2023-02-10T00:22:55Z,42.805,6.029,13.3069,4.60170,2470.577,2023-2-10T02:25:16Z
2023-02-10T00:25:58Z,42.805,6.029,13.3065,4.60169,2470.6,2023-2-10T02:28:19Z
2023-02-10T00:29:01Z,42.805,6.029,13.3058,4.60178,2470.553,2023-2-10T02:31:22Z
2023-02-10T00:32:04Z,42.805,6.029,13.3074,4.60160,2470.553,2023-2-10T02:34:25Z
2023-02-10T00:35:07Z,42.805,6.029,13.3057,4.60137,2470.577,2023-2-10T02:37:28Z
2023-02-10T00:38:10Z,42.805,6.029,13.3047,4.60149,2470.577,2023-2-10T02:40:31Z
2023-02-10T00:41:13Z,42.805,6.029,13.3048,4.60144,2470.553,2023-2-10T02:43:34Z
2023-02-10T00:44:16Z,42.805,6.029,13.3070,4.60192,2470.553,2023-2-10T02:46:37Z
2023-02-10T00:47:19Z,42.805,6.029,13.3056,4.60175,2470.591,2023-2-10T02:49:40Z
2023-02-10T00:50:23Z,42.805,6.029,13.3067,4.60193,2470.577,2023-2-10T02:52:43Z
2023-02-10T00:53:26Z,42.805,6.029,13.3062,4.60168,2470.553,2023-2-10T02:55:47Z
2023-02-10T00:56:29Z,42.805,6.029,13.3062,4.60183,2470.553,2023-2-10T02:58:50Z
2023-02-10T00:59:32Z,42.805,6.029,13.3076,4.60170,2470.544,2023-2-10T03:01:53Z
2023-02-10T01:02:35Z,42.805,6.029,13.3082,4.60100,2470.553,2023-2-10T03:04:56Z
2023-02-10T01:05:38Z,42.805,6.029,13.3069,4.60144,2470.614,2023-2-10T03:07:59Z
2023-02-10T01:08:41Z,42.805,6.029,13.3046,4.60097,2470.553,2023-2-10T03:11:02Z
2023-02-10T01:11:44Z,42.805,6.029,13.3030,4.60145,2470.577,2023-2-10T03:14:05Z
2023-02-10T01:14:47Z,42.805,6.029,13.3037,4.60166,2470.591,2023-2-10T03:17:08Z
2023-02-10T01:17:50Z,42.805,6.029,13.3057,4.60167,2470.553,2023-2-10T03:20:11Z
2023-02-10T01:20:53Z,42.805,6.029,13.3056,4.60140,2470.544,2023-2-10T03:23:14Z
2023-02-10T01:23:56Z,42.805,6.029,13.3052,4.60150,2470.52,2023-2-10T03:26:17Z
2023-02-10T01:27:00Z,42.805,6.029,13.3069,4.60147,2470.567,2023-2-10T03:29:20Z
2023-02-10T01:30:03Z,42.805,6.029,13.3088,4.60164,2470.544,2023-2-10T03:32:24Z
2023-02-10T01:33:06Z,42.805,6.029,13.3089,4.60172,2470.553,2023-2-10T03:35:27Z
2023-02-10T01:36:09Z,42.805,6.029,13.3087,4.60119,2470.553,2023-2-10T03:38:30Z
2023-02-10T01:39:12Z,42.805,6.029,13.3040,4.60154,2470.553,2023-2-10T03:41:33Z
2023-02-10T01:42:15Z,42.805,6.029,13.3058,4.60150,2470.544,2023-2-10T03:44:36Z
2023-02-10T01:45:18Z,42.805,6.029,13.3080,4.60127,2470.507,2023-2-10T03:47:39Z
2023-02-10T01:48:21Z,42.805,6.029,13.3074,4.60136,2470.553,2023-2-10T03:50:42Z
2023-02-10T01:51:24Z,42.805,6.029,13.3082,4.60123,2470.53,2023-2-10T03:53:45Z
2023-02-10T01:54:27Z,42.805,6.029,13.3056,4.60099,2470.544,2023-2-10T03:56:48Z
2023-02-10T01:57:30Z,42.805,6.029,13.3038,4.60114,2470.507,2023-2-10T03:59:51Z
2023-02-10T02:00:33Z,42.805,6.029,13.3052,4.60125,2470.52,2023-2-10T04:02:54Z
2023-02-10T02:03:36Z,42.805,6.029,13.3052,4.60109,2470.553,2023-2-10T04:05:57Z
2023-02-10T02:06:40Z,42.805,6.029,13.3062,4.60119,2470.53,2023-2-10T04:09:00Z
2023-02-10T02:09:43Z,42.805,6.029,13.3067,4.60097,2470.507,2023-2-10T04:12:04Z
2023-02-10T02:12:46Z,42.805,6.029,13.3055,4.60109,2470.507,2023-2-10T04:15:07Z
2023-02-10T02:15:49Z,42.805,6.029,13.3056,4.60122,2470.53,2023-2-10T04:18:10Z
2023-02-10T02:18:52Z,42.805,6.029,13.3055,4.60093,2470.52,2023-2-10T04:21:13Z
2023-02-10T02:21:55Z,42.805,6.029,13.3039,4.60107,2470.507,2023-2-10T04:24:16Z
2023-02-10T02:24:58Z,42.805,6.029,13.3056,4.60112,2470.544,2023-2-10T04:27:19Z
2023-02-10T02:28:01Z,42.805,6.029,13.3047,4.60122,2470.52,2023-2-10T04:30:22Z
2023-02-10T02:31:04Z,42.805,6.029,13.3050,4.60114,2470.483,2023-2-10T04:33:25Z
2023-02-10T02:34:07Z,42.805,6.029,13.3064,4.60114,2470.507,2023-2-10T04:36:28Z
2023-02-10T02:37:10Z,42.805,6.029,13.3063,4.60107,2470.507,2023-2-10T04:39:31Z
2023-02-10T02:40:13Z,42.805,6.029,13.3062,4.60112,2470.507,2023-2-10T04:42:34Z
2023-02-10T02:43:17Z,42.805,6.029,13.3063,4.60109,2470.53,2023-2-10T04:45:37Z
2023-02-10T02:46:20Z,42.805,6.029,13.3054,4.60125,2470.483,2023-2-10T04:48:41Z
2023-02-10T02:49:23Z,42.805,6.029,13.3051,4.60112,2470.52,2023-2-10T04:51:44Z
2023-02-10T02:52:26Z,42.805,6.029,13.3058,4.60097,2470.52,2023-2-10T04:54:47Z
2023-02-10T02:55:29Z,42.805,6.029,13.3062,4.60109,2470.544,2023-2-10T04:57:50Z
2023-02-10T02:58:32Z,42.805,6.029,13.3070,4.60110,2470.52,2023-2-10T05:00:53Z
2023-02-10T03:01:35Z,42.805,6.029,13.3082,4.60114,2470.507,2023-2-10T05:03:56Z
2023-02-10T03:04:38Z,42.805,6.029,13.3072,4.60122,2470.483,2023-2-10T05:06:59Z
2023-02-10T03:07:41Z,42.805,6.029,13.3064,4.60137,2470.507,2023-2-10T05:10:02Z
2023-02-10T03:10:44Z,42.805,6.029,13.3060,4.60121,2470.507,2023-2-10T05:13:05Z
2023-02-10T03:13:47Z,42.805,6.029,13.3067,4.60113,2470.474,2023-2-10T05:16:08Z
2023-02-10T03:16:50Z,42.805,6.029,13.3066,4.60109,2470.497,2023-2-10T05:19:11Z
2023-02-10T03:19:53Z,42.805,6.029,13.3061,4.60099,2470.497,2023-2-10T05:22:14Z
2023-02-10T03:22:57Z,42.805,6.029,13.3084,4.60117,2470.52,2023-2-10T05:25:18Z
2023-02-10T03:26:00Z,42.805,6.029,13.3073,4.60104,2470.507,2023-2-10T05:28:21Z
2023-02-10T03:29:03Z,42.805,6.029,13.3059,4.60107,2470.483,2023-2-10T05:31:24Z
2023-02-10T03:32:06Z,42.805,6.029,13.3053,4.60119,2470.507,2023-2-10T05:34:27Z
2023-02-10T03:35:09Z,42.805,6.029,13.3070,4.60110,2470.52,2023-2-10T05:37:30Z
2023-02-10T03:38:12Z,42.805,6.029,13.3073,4.60110,2470.483,2023-2-10T05:40:33Z
2023-02-10T03:41:15Z,42.805,6.029,13.3058,4.60106,2470.46,2023-2-10T05:43:36Z
2023-02-10T03:44:18Z,42.805,6.029,13.3049,4.60115,2470.52,2023-2-10T05:46:39Z
2023-02-10T03:47:21Z,42.805,6.029,13.3058,4.60102,2470.53,2023-2-10T05:49:42Z
2023-02-10T03:50:24Z,42.805,6.029,13.3058,4.60108,2470.507,2023-2-10T05:52:45Z
2023-02-10T03:53:27Z,42.805,6.029,13.3070,4.60116,2470.507,2023-2-10T05:55:48Z
2023-02-10T03:56:30Z,42.805,6.029,13.3068,4.60113,2470.52,2023-2-10T05:58:51Z
2023-02-10T03:59:34Z,42.805,6.029,13.3077,4.60107,2470.483,2023-2-10T06:01:55Z
2023-02-10T04:02:37Z,42.805,6.029,13.3061,4.60103,2470.497,2023-2-10T06:04:58Z
2023-02-10T04:05:40Z,42.805,6.029,13.3076,4.60110,2470.497,2023-2-10T06:08:01Z
2023-02-10T04:08:43Z,42.805,6.029,13.3069,4.60094,2470.52,2023-2-10T06:11:04Z
2023-02-10T04:11:46Z,42.805,6.029,13.3060,4.60106,2470.53,2023-2-10T06:14:07Z
2023-02-10T04:14:49Z,42.805,6.029,13.3070,4.60106,2470.52,2023-2-10T06:17:10Z
2023-02-10T04:17:52Z,42.805,6.029,13.3069,4.60108,2470.483,2023-2-10T06:20:13Z
2023-02-10T04:20:55Z,42.805,6.029,13.3066,4.60120,2470.483,2023-2-10T06:23:16Z
2023-02-10T04:23:58Z,42.805,6.029,13.3058,4.60099,2470.507,2023-2-10T06:26:19Z
2023-02-10T04:27:01Z,42.805,6.029,13.3082,4.60097,2470.483,2023-2-10T06:29:22Z
2023-02-10T04:30:04Z,42.805,6.029,13.3066,4.60091,2470.52,2023-2-10T06:32:25Z
2023-02-10T04:33:07Z,42.805,6.029,13.3069,4.60103,2470.483,2023-2-10T06:35:28Z
2023-02-10T04:36:10Z,42.805,6.029,13.3063,4.60104,2470.52,2023-2-10T06:38:31Z
2023-02-10T04:39:14Z,42.805,6.029,13.3049,4.60115,2470.507,2023-2-10T06:41:35Z
2023-02-10T04:42:17Z,42.805,6.029,13.3056,4.60101,2470.483,2023-2-10T06:44:38Z
2023-02-10T04:45:20Z,42.805,6.029,13.3048,4.60097,2470.507,2023-2-10T06:47:41Z
2023-02-10T04:48:23Z,42.805,6.029,13.3058,4.60109,2470.52,2023-2-10T06:50:44Z
2023-02-10T04:51:26Z,42.805,6.029,13.3056,4.60121,2470.497,2023-2-10T06:53:47Z
2023-02-10T04:54:29Z,42.805,6.029,13.3065,4.60107,2470.497,2023-2-10T06:56:50Z
2023-02-10T04:57:32Z,42.805,6.029,13.3047,4.60099,2470.483,2023-2-10T06:59:53Z
2023-02-10T05:00:35Z,42.805,6.029,13.3048,4.60114,2470.544,2023-2-10T07:02:56Z
2023-02-10T05:03:38Z,42.805,6.029,13.3054,4.60097,2470.52,2023-2-10T07:05:59Z
2023-02-10T05:06:41Z,42.805,6.029,13.3051,4.60099,2470.497,2023-2-10T07:09:02Z
2023-02-10T05:09:44Z,42.805,6.029,13.3054,4.60098,2470.52,2023-2-10T07:12:05Z
2023-02-10T05:12:47Z,42.805,6.029,13.3058,4.60108,2470.493,2023-2-10T07:15:08Z
2023-02-10T05:15:50Z,42.805,6.029,13.3048,4.60108,2470.544,2023-2-10T07:18:11Z
2023-02-10T05:18:54Z,42.805,6.029,13.3057,4.60099,2470.46,2023-2-10T07:21:15Z
2023-02-10T05:21:57Z,42.805,6.029,13.3054,4.60104,2470.53,2023-2-10T07:24:18Z
2023-02-10T05:25:00Z,42.805,6.029,13.3054,4.60097,2470.507,2023-2-10T07:27:21Z
2023-02-10T05:28:03Z,42.805,6.029,13.3054,4.60117,2470.53,2023-2-10T07:30:24Z
2023-02-10T05:31:06Z,42.805,6.029,13.3050,4.60110,2470.53,2023-2-10T07:33:27Z
2023-02-10T05:34:09Z,42.805,6.029,13.3065,4.60104,2470.53,2023-2-10T07:36:30Z
2023-02-10T05:37:12Z,42.805,6.029,13.3070,4.60107,2470.544,2023-2-10T07:39:33Z
2023-02-10T05:40:15Z,42.805,6.029,13.3050,4.60093,2470.507,2023-2-10T07:42:36Z
2023-02-10T05:43:18Z,42.805,6.029,13.3061,4.60119,2470.544,2023-2-10T07:45:39Z
2023-02-10T05:46:21Z,42.805,6.029,13.3058,4.60099,2470.507,2023-2-10T07:48:42Z
2023-02-10T05:49:24Z,42.805,6.029,13.3059,4.60108,2470.53,2023-2-10T07:51:45Z
2023-02-10T05:52:27Z,42.805,6.029,13.3056,4.60110,2470.553,2023-2-10T07:54:48Z
2023-02-10T05:55:31Z,42.805,6.029,13.3058,4.60105,2470.52,2023-2-10T07:57:52Z
2023-02-10T05:58:34Z,42.805,6.029,13.3069,4.60104,2470.567,2023-2-10T08:00:55Z
2023-02-10T06:01:37Z,42.805,6.029,13.3063,4.60094,2470.544,2023-2-10T08:03:58Z
2023-02-10T06:04:40Z,42.805,6.029,13.3067,4.60096,2470.52,2023-2-10T08:07:01Z
2023-02-10T06:07:43Z,42.805,6.029,13.3061,4.60102,2470.591,2023-2-10T08:10:04Z
2023-02-10T06:10:46Z,42.805,6.029,13.3060,4.60108,2470.507,2023-2-10T08:13:07Z
2023-02-10T06:13:49Z,42.805,6.029,13.3070,4.60110,2470.553,2023-2-10T08:16:10Z
2023-02-10T06:16:52Z,42.805,6.029,13.3066,4.60101,2470.567,2023-2-10T08:19:13Z
2023-02-10T06:19:55Z,42.805,6.029,13.3058,4.60092,2470.553,2023-2-10T08:22:16Z
2023-02-10T06:22:58Z,42.805,6.029,13.3063,4.60107,2470.539,2023-2-10T08:25:19Z
2023-02-10T06:26:01Z,42.805,6.029,13.3059,4.60098,2470.591,2023-2-10T08:28:22Z
2023-02-10T06:29:04Z,42.805,6.029,13.3064,4.60107,2470.567,2023-2-10T08:31:25Z
2023-02-10T06:32:07Z,42.805,6.029,13.3062,4.60109,2470.567,2023-2-10T08:34:29Z
2023-02-10T06:35:11Z,42.805,6.029,13.3063,4.60112,2470.567,2023-2-10T08:37:32Z
2023-02-10T06:38:14Z,42.805,6.029,13.3057,4.60091,2470.614,2023-2-10T08:40:35Z
2023-02-10T06:41:17Z,42.805,6.029,13.3063,4.60116,2470.591,2023-2-10T08:43:38Z
2023-02-10T06:44:20Z,42.805,6.029,13.3054,4.60110,2470.567,2023-2-10T08:46:41Z
2023-02-10T06:47:23Z,42.805,6.029,13.3053,4.60110,2470.567,2023-2-10T08:49:44Z
2023-02-10T06:50:26Z,42.805,6.029,13.3058,4.60110,2470.614,2023-2-10T08:52:47Z
2023-02-10T06:53:29Z,42.805,6.029,13.3053,4.60104,2470.591,2023-2-10T08:55:50Z
2023-02-10T06:56:32Z,42.805,6.029,13.3067,4.60108,2470.591,2023-2-10T08:58:53Z
2023-02-10T06:59:35Z,42.805,6.029,13.3057,4.60106,2470.614,2023-2-10T09:01:56Z
2023-02-10T07:02:38Z,42.805,6.029,13.3059,4.60114,2470.586,2023-2-10T09:04:59Z
2023-02-10T07:05:41Z,42.805,6.029,13.3088,4.60117,2470.6,2023-2-10T09:08:02Z
2023-02-10T07:08:44Z,42.805,6.029,13.3058,4.60099,2470.6,2023-2-10T09:11:06Z
2023-02-10T07:11:48Z,42.805,6.029,13.3063,4.60113,2470.577,2023-2-10T09:14:09Z
2023-02-10T07:14:51Z,42.805,6.029,13.3061,4.60113,2470.577,2023-2-10T09:17:12Z
2023-02-10T07:17:54Z,42.805,6.029,13.3066,4.60106,2470.637,2023-2-10T09:20:15Z
2023-02-10T07:20:57Z,42.805,6.029,13.3070,4.60093,2470.6,2023-2-10T09:23:18Z
2023-02-10T07:24:00Z,42.805,6.029,13.3063,4.60107,2470.6,2023-2-10T09:26:21Z
2023-02-10T07:27:03Z,42.805,6.029,13.3050,4.60111,2470.624,2023-2-10T09:29:24Z
2023-02-10T07:30:06Z,42.805,6.029,13.3058,4.60114,2470.637,2023-2-10T09:32:27Z
2023-02-10T07:33:09Z,42.805,6.029,13.3077,4.60105,2470.661,2023-2-10T09:35:30Z
2023-02-10T07:36:12Z,42.805,6.029,13.3078,4.60108,2470.661,2023-2-10T09:38:33Z
2023-02-10T07:39:15Z,42.805,6.029,13.3065,4.60114,2470.624,2023-2-10T09:41:36Z
2023-02-10T07:42:18Z,42.805,6.029,13.3065,4.60097,2470.624,2023-2-10T09:44:39Z
2023-02-10T07:45:21Z,42.805,6.029,13.3051,4.60116,2470.624,2023-2-10T09:47:42Z
2023-02-10T07:48:24Z,42.805,6.029,13.3058,4.60115,2470.637,2023-2-10T09:50:46Z
2023-02-10T07:51:28Z,42.805,6.029,13.3060,4.60108,2470.646,2023-2-10T09:53:49Z
2023-02-10T07:54:31Z,42.805,6.029,13.3079,4.60112,2470.646,2023-2-10T09:56:52Z
2023-02-10T07:57:34Z,42.805,6.029,13.3077,4.60104,2470.646,2023-2-10T09:59:55Z
2023-02-10T08:00:37Z,42.805,6.029,13.3069,4.60106,2470.624,2023-2-10T10:02:58Z
2023-02-10T08:03:40Z,42.805,6.029,13.3065,4.60099,2470.637,2023-2-10T10:06:01Z
2023-02-10T08:06:43Z,42.805,6.029,13.3052,4.60102,2470.624,2023-2-10T10:09:04Z
2023-02-10T08:09:46Z,42.805,6.029,13.3062,4.60104,2470.684,2023-2-10T10:12:07Z
2023-02-10T08:12:49Z,42.805,6.029,13.3061,4.60107,2470.684,2023-2-10T10:15:10Z
2023-02-10T08:15:52Z,42.805,6.029,13.3067,4.60110,2470.67,2023-2-10T10:18:13Z
2023-02-10T08:18:55Z,42.805,6.029,13.3060,4.60114,2470.693,2023-2-10T10:21:16Z
2023-02-10T08:21:58Z,42.805,6.029,13.3054,4.60101,2470.646,2023-2-10T10:24:19Z
2023-02-10T08:25:01Z,42.805,6.029,13.3049,4.60108,2470.661,2023-2-10T10:27:23Z
2023-02-10T08:28:05Z,42.805,6.029,13.3067,4.60107,2470.67,2023-2-10T10:30:26Z
2023-02-10T08:31:08Z,42.805,6.029,13.3058,4.60106,2470.67,2023-2-10T10:33:29Z
2023-02-10T08:34:11Z,42.805,6.029,13.3061,4.60114,2470.693,2023-2-10T10:36:32Z
2023-02-10T08:37:14Z,42.805,6.029,13.3066,4.60110,2470.684,2023-2-10T10:39:35Z
2023-02-10T08:40:17Z,42.805,6.029,13.3061,4.60110,2470.637,2023-2-10T10:42:38Z
2023-02-10T08:43:20Z,42.805,6.029,13.3069,4.60117,2470.67,2023-2-10T10:45:41Z
2023-02-10T08:46:23Z,42.805,6.029,13.3062,4.60108,2470.693,2023-2-10T10:48:44Z
2023-02-10T08:49:26Z,42.805,6.029,13.3058,4.60107,2470.684,2023-2-10T10:51:47Z
2023-02-10T08:52:29Z,42.805,6.029,13.3060,4.60112,2470.646,2023-2-10T10:54:50Z
2023-02-10T08:55:32Z,42.805,6.029,13.3064,4.60128,2470.684,2023-2-10T10:57:53Z
2023-02-10T08:58:35Z,42.805,6.029,13.3070,4.60112,2470.717,2023-2-10T11:00:56Z
2023-02-10T09:01:38Z,42.805,6.029,13.3093,4.60116,2470.693,2023-2-10T11:04:00Z
2023-02-10T09:04:42Z,42.805,6.029,13.3067,4.60103,2470.684,2023-2-10T11:07:03Z
2023-02-10T09:07:45Z,42.805,6.029,13.3058,4.60107,2470.693,2023-2-10T11:10:06Z
2023-02-10T09:10:48Z,42.805,6.029,13.3073,4.60111,2470.684,2023-2-10T11:13:09Z
2023-02-10T09:13:51Z,42.805,6.029,13.3089,4.60107,2470.684,2023-2-10T11:16:12Z
2023-02-10T09:16:54Z,42.805,6.029,13.3063,4.60111,2470.73,2023-2-10T11:19:15Z
2023-02-10T09:19:57Z,42.805,6.029,13.3067,4.60109,2470.707,2023-2-10T11:22:18Z
2023-02-10T09:23:00Z,42.805,6.029,13.3057,4.60117,2470.693,2023-2-10T11:25:21Z
2023-02-10T09:26:03Z,42.805,6.029,13.3067,4.60119,2470.707,2023-2-10T11:28:24Z
2023-02-10T09:29:06Z,42.805,6.029,13.3058,4.60117,2470.717,2023-2-10T11:31:27Z
2023-02-10T09:32:09Z,42.805,6.029,13.3069,4.60115,2470.684,2023-2-10T11:34:30Z
2023-02-10T09:35:12Z,42.805,6.029,13.3101,4.60104,2470.707,2023-2-10T11:37:34Z
2023-02-10T09:38:16Z,42.805,6.029,13.3083,4.60126,2470.67,2023-2-10T11:40:37Z
2023-02-10T09:41:19Z,42.805,6.029,13.3081,4.60114,2470.693,2023-2-10T11:43:40Z
2023-02-10T09:44:22Z,42.805,6.029,13.3087,4.60123,2470.754,2023-2-10T11:46:43Z
2023-02-10T09:47:25Z,42.805,6.029,13.3082,4.60122,2470.693,2023-2-10T11:49:46Z
2023-02-10T09:50:28Z,42.805,6.029,13.3093,4.60117,2470.693,2023-2-10T11:52:49Z
2023-02-10T09:53:31Z,42.805,6.029,13.3090,4.60104,2470.717,2023-2-10T11:55:52Z
2023-02-10T09:56:34Z,42.805,6.029,13.3083,4.60112,2470.684,2023-2-10T11:58:55Z
2023-02-10T09:59:37Z,42.805,6.029,13.3078,4.60127,2470.693,2023-2-10T12:01:58Z
2023-02-10T10:02:40Z,42.805,6.029,13.3079,4.60119,2470.754,2023-2-10T12:05:01Z
2023-02-10T10:05:43Z,42.805,6.029,13.3073,4.60097,2470.693,2023-2-10T12:08:04Z
2023-02-10T10:08:46Z,42.805,6.029,13.3067,4.60098,2470.693,2023-2-10T12:11:07Z
2023-02-10T10:11:49Z,42.805,6.029,13.3072,4.60109,2470.73,2023-2-10T12:14:11Z
2023-02-10T10:14:53Z,42.805,6.029,13.3061,4.60119,2470.67,2023-2-10T12:17:14Z
2023-02-10T10:17:56Z,42.805,6.029,13.3093,4.60112,2470.693,2023-2-10T12:20:17Z
2023-02-10T10:20:59Z,42.805,6.029,13.3074,4.60106,2470.693,2023-2-10T12:23:20Z
2023-02-10T10:24:02Z,42.805,6.029,13.3082,4.60108,2470.73,2023-2-10T12:26:23Z
2023-02-10T10:27:05Z,42.805,6.029,13.3084,4.60107,2470.717,2023-2-10T12:29:26Z
2023-02-10T10:30:08Z,42.805,6.029,13.3098,4.60135,2470.67,2023-2-10T12:32:29Z
2023-02-10T10:33:11Z,42.805,6.029,13.3073,4.60106,2470.717,2023-2-10T12:35:32Z
2023-02-10T10:36:14Z,42.805,6.029,13.3067,4.60119,2470.67,2023-2-10T12:38:35Z
2023-02-10T10:39:17Z,42.805,6.029,13.3069,4.60110,2470.693,2023-2-10T12:41:38Z
2023-02-10T10:42:20Z,42.805,6.029,13.3067,4.60102,2470.73,2023-2-10T12:44:41Z
2023-02-10T10:45:23Z,42.805,6.029,13.3064,4.60108,2470.707,2023-2-10T12:47:45Z
2023-02-10T10:48:27Z,42.805,6.029,13.3080,4.60120,2470.684,2023-2-10T12:50:48Z
2023-02-10T10:51:30Z,42.805,6.029,13.3061,4.60130,2470.73,2023-2-10T12:53:51Z
2023-02-10T10:54:33Z,42.805,6.029,13.3077,4.60126,2470.717,2023-2-10T12:56:54Z
2023-02-10T10:57:36Z,42.805,6.029,13.3084,4.60131,2470.684,2023-2-10T12:59:57Z
2023-02-10T11:00:39Z,42.805,6.029,13.3083,4.60132,2470.684,2023-2-10T13:03:00Z
2023-02-10T11:03:42Z,42.805,6.029,13.3065,4.60138,2470.661,2023-2-10T13:06:03Z
2023-02-10T11:06:45Z,42.805,6.029,13.3058,4.60113,2470.646,2023-2-10T13:09:06Z
2023-02-10T11:09:48Z,42.805,6.029,13.3086,4.60107,2470.707,2023-2-10T13:12:09Z
2023-02-10T11:12:51Z,42.805,6.029,13.3108,4.60106,2470.646,2023-2-10T13:15:12Z
2023-02-10T11:15:54Z,42.805,6.029,13.3074,4.60126,2470.684,2023-2-10T13:18:15Z
2023-02-10T11:18:57Z,42.805,6.029,13.3059,4.60135,2470.684,2023-2-10T13:21:18Z
2023-02-10T11:22:00Z,42.805,6.029,13.3068,4.60145,2470.693,2023-2-10T13:24:22Z
2023-02-10T11:25:03Z,42.805,6.029,13.3058,4.60135,2470.67,2023-2-10T13:27:25Z
2023-02-10T11:28:07Z,42.805,6.029,13.3067,4.60113,2470.661,2023-2-10T13:30:28Z
2023-02-10T11:31:10Z,42.805,6.029,13.3056,4.60152,2470.661,2023-2-10T13:33:31Z
2023-02-10T11:34:13Z,42.805,6.029,13.3076,4.60131,2470.661,2023-2-10T13:36:34Z
2023-02-10T11:37:16Z,42.805,6.029,13.3064,4.60174,2470.661,2023-2-10T13:39:37Z
2023-02-10T11:40:19Z,42.805,6.029,13.3089,4.60122,2470.707,2023-2-10T13:42:40Z
2023-02-10T11:43:22Z,42.805,6.029,13.3112,4.60144,2470.67,2023-2-10T13:45:43Z
2023-02-10T11:46:25Z,42.805,6.029,13.3097,4.60143,2470.661,2023-2-10T13:48:46Z
2023-02-10T11:49:28Z,42.805,6.029,13.3077,4.60170,2470.661,2023-2-10T13:51:49Z
2023-02-10T11:52:31Z,42.805,6.029,13.3094,4.60174,2470.661,2023-2-10T13:54:52Z
2023-02-10T11:55:34Z,42.805,6.029,13.3104,4.60134,2470.646,2023-2-10T13:57:56Z
2023-02-10T11:58:37Z,42.805,6.029,13.3109,4.60135,2470.661,2023-2-10T14:00:59Z
2023-02-10T12:01:41Z,42.805,6.029,13.3094,4.60147,2470.646,2023-2-10T14:04:02Z
2023-02-10T12:04:44Z,42.805,6.029,13.3089,4.60140,2470.637,2023-2-10T14:07:05Z
2023-02-10T12:07:47Z,42.805,6.029,13.3082,4.60157,2470.661,2023-2-10T14:10:08Z
2023-02-10T12:10:50Z,42.805,6.029,13.3100,4.60185,2470.661,2023-2-10T14:13:11Z
2023-02-10T12:13:53Z,42.805,6.029,13.3109,4.60155,2470.646,2023-2-10T14:16:14Z
2023-02-10T12:16:56Z,42.805,6.029,13.3109,4.60178,2470.646,2023-2-10T14:19:17Z
2023-02-10T12:19:59Z,42.805,6.029,13.3068,4.60150,2470.661,2023-2-10T14:22:20Z
2023-02-10T12:23:02Z,42.805,6.029,13.3078,4.60184,2470.6,2023-2-10T14:25:23Z
2023-02-10T12:26:05Z,42.805,6.029,13.3111,4.60187,2470.646,2023-2-10T14:28:26Z
2023-02-10T12:29:08Z,42.805,6.029,13.3103,4.60158,2470.637,2023-2-10T14:31:29Z
2023-02-10T12:32:11Z,42.805,6.029,13.3054,4.60134,2470.637,2023-2-10T14:34:33Z
2023-02-10T12:35:14Z,42.805,6.029,13.3069,4.60167,2470.637,2023-2-10T14:37:36Z
2023-02-10T12:38:18Z,42.805,6.029,13.3082,4.60157,2470.661,2023-2-10T14:40:39Z
2023-02-10T12:41:21Z,42.805,6.029,13.3068,4.60178,2470.646,2023-2-10T14:43:42Z
2023-02-10T12:44:24Z,42.805,6.029,13.3080,4.60180,2470.624,2023-2-10T14:46:45Z
2023-02-10T12:47:27Z,42.805,6.029,13.3060,4.60155,2470.637,2023-2-10T14:49:48Z
2023-02-10T12:50:30Z,42.805,6.029,13.3052,4.60171,2470.624,2023-2-10T14:52:51Z
2023-02-10T12:53:33Z,42.805,6.029,13.3079,4.60173,2470.637,2023-2-10T14:55:54Z
2023-02-10T12:56:36Z,42.805,6.029,13.3079,4.60150,2470.6,2023-2-10T14:58:57Z
2023-02-10T12:59:39Z,42.805,6.029,13.3073,4.60165,2470.624,2023-2-10T15:02:00Z
2023-02-10T13:02:42Z,42.805,6.029,13.3070,4.60167,2470.6,2023-2-10T15:05:03Z
2023-02-10T13:05:45Z,42.805,6.029,13.3076,4.60146,2470.6,2023-2-10T15:08:06Z
2023-02-10T13:08:48Z,42.805,6.029,13.3073,4.60150,2470.624,2023-2-10T15:11:10Z
2023-02-10T13:11:51Z,42.805,6.029,13.3084,4.60163,2470.614,2023-2-10T15:14:13Z
2023-02-10T13:14:55Z,42.805,6.029,13.3091,4.60125,2470.6,2023-2-10T15:17:16Z
2023-02-10T13:17:58Z,42.805,6.029,13.3070,4.60157,2470.6,2023-2-10T15:20:19Z
2023-02-10T13:21:01Z,42.805,6.029,13.3073,4.60135,2470.637,2023-2-10T15:23:22Z
2023-02-10T13:24:04Z,42.805,6.029,13.3077,4.60150,2470.6,2023-2-10T15:26:25Z
2023-02-10T13:27:07Z,42.805,6.029,13.3074,4.60191,2470.6,2023-2-10T15:29:28Z
2023-02-10T13:30:10Z,42.805,6.029,13.3078,4.60149,2470.6,2023-2-10T15:32:31Z
2023-02-10T13:33:13Z,42.805,6.029,13.3083,4.60173,2470.577,2023-2-10T15:35:34Z
2023-02-10T13:36:16Z,42.805,6.029,13.3073,4.60157,2470.6,2023-2-10T15:38:37Z
2023-02-10T13:39:19Z,42.805,6.029,13.3070,4.60176,2470.614,2023-2-10T15:41:40Z
2023-02-10T13:42:22Z,42.805,6.029,13.3089,4.60143,2470.6,2023-2-10T15:44:44Z
2023-02-10T13:45:25Z,42.805,6.029,13.3076,4.60154,2470.577,2023-2-10T15:47:47Z
2023-02-10T13:48:29Z,42.805,6.029,13.3084,4.60145,2470.6,2023-2-10T15:50:50Z
2023-02-10T13:51:32Z,42.805,6.029,13.3066,4.60141,2470.567,2023-2-10T15:53:53Z
2023-02-10T13:54:35Z,42.805,6.029,13.3080,4.60127,2470.577,2023-2-10T15:56:56Z
2023-02-10T13:57:38Z,42.805,6.029,13.3062,4.60143,2470.614,2023-2-10T15:59:59Z
2023-02-10T14:00:41Z,42.805,6.029,13.3081,4.60150,2470.6,2023-2-10T16:03:02Z
2023-02-10T14:03:44Z,42.805,6.029,13.3098,4.60152,2470.6,2023-2-10T16:06:05Z
2023-02-10T14:06:47Z,42.805,6.029,13.3074,4.60129,2470.567,2023-2-10T16:09:08Z
2023-02-10T14:09:50Z,42.805,6.029,13.3074,4.60119,2470.6,2023-2-10T16:12:11Z
2023-02-10T14:12:53Z,42.805,6.029,13.3073,4.60150,2470.591,2023-2-10T16:15:14Z
2023-02-10T14:15:56Z,42.805,6.029,13.3058,4.60123,2470.553,2023-2-10T16:18:17Z
2023-02-10T14:18:59Z,42.805,6.029,13.3069,4.60123,2470.553,2023-2-10T16:21:21Z
2023-02-10T14:22:02Z,42.805,6.029,13.3043,4.60097,2470.6,2023-2-10T16:24:24Z
2023-02-10T14:25:06Z,42.805,6.029,13.3045,4.60116,2470.614,2023-2-10T16:27:27Z
2023-02-10T14:28:09Z,42.805,6.029,13.3073,4.60127,2470.591,2023-2-10T16:30:30Z
2023-02-10T14:31:12Z,42.805,6.029,13.3052,4.60142,2470.6,2023-2-10T16:33:33Z
2023-02-10T14:34:15Z,42.805,6.029,13.3049,4.60107,2470.577,2023-2-10T16:36:36Z
2023-02-10T14:37:18Z,42.805,6.029,13.3058,4.60113,2470.614,2023-2-10T16:39:39Z
2023-02-10T14:40:21Z,42.805,6.029,13.3061,4.60107,2470.591,2023-2-10T16:42:42Z
2023-02-10T14:43:24Z,42.805,6.029,13.3036,4.60097,2470.6,2023-2-10T16:45:45Z
2023-02-10T14:46:27Z,42.805,6.029,13.3041,4.60117,2470.577,2023-2-10T16:48:48Z
2023-02-10T14:49:30Z,42.805,6.029,13.3048,4.60092,2470.577,2023-2-10T16:51:51Z
2023-02-10T14:52:33Z,42.805,6.029,13.3049,4.60163,2470.577,2023-2-10T16:54:55Z
2023-02-10T14:55:36Z,42.805,6.029,13.3058,4.60101,2470.567,2023-2-10T16:57:58Z
2023-02-10T14:58:39Z,42.805,6.029,13.3039,4.60092,2470.553,2023-2-10T17:01:01Z
2023-02-10T15:01:43Z,42.805,6.029,13.3043,4.60102,2470.591,2023-2-10T17:04:04Z
2023-02-10T15:04:46Z,42.805,6.029,13.3043,4.60102,2470.591,2023-2-10T17:07:07Z
2023-02-10T15:07:49Z,42.805,6.029,13.3046,4.60091,2470.567,2023-2-10T17:10:10Z
2023-02-10T15:10:52Z,42.805,6.029,13.3048,4.60104,2470.553,2023-2-10T17:13:13Z
2023-02-10T15:13:55Z,42.805,6.029,13.3052,4.60095,2470.577,2023-2-10T17:16:16Z